Kerkyra, Greece

6:39 PM EEST on May 28, 2017 (GMT +0300)
Ioannis Kapodistrias

Weather History for LGKR - October, 2012

Change the Weather History Date:

Sunday, October 14, 2012

  Actual Average Record
Temperature  
Mean Temperature 69 °F -  
Max Temperature 74 °F 70 °F 82 °F (2000)
Min Temperature 64 °F 53 °F 53 °F (2003)
Cooling Degree Days 4    
Growing Degree Days 19 (Base 50)    
Moisture  
Dew Point 68 °F    
Average Humidity 91    
Maximum Humidity 100    
Minimum Humidity 83    
Precipitation  
Precipitation 0.59 in 0.21 in - ()
Sea Level Pressure  
Sea Level Pressure 29.87 in    
Wind  
Wind Speed 9 mph ()    
Max Wind Speed 18 mph    
Max Gust Speed -    
Visibility 5.6 miles    
Events Rain , Thunderstorm    
Averages and records for this station are not official NWS values.
T = Trace of Precipitation, MM = Missing Value Source: Averaged Metar Reports

Daily Weather History Graph

Daily Weather History Graph

Search for Another Location

Airport or City:

Trip Planner

Search our weather history database for the weather conditions in past years. The results will help you decide how hot, cold, wet, or windy it might be!

Date:

Astronomy

Oct. 14, 2012 Rise Set
Actual Time 7:49 AM EEST 7:02 PM EEST
Civil Twilight 7:22 AM EEST 7:29 PM EEST
Nautical Twilight 6:51 AM EEST 8:00 PM EEST
Astronomical Twilight 6:20 AM EEST 8:31 PM EEST
Moon 6:27 AM EEST (10/14) 6:10 PM EEST (10/14)
Length of Visible Light 12h 06m
Length of Day
11h 12m
Waning Crescent, 2% of the Moon is Illuminated
Oct 14
Waning Crescent
Oct 15
New
Oct 22
First Quarter
Oct 29
Full
Nov 7
Last Quarter

Hourly Weather History & Observations

Time (EEST) Temp. Dew Point Humidity Pressure Visibility Wind Dir Wind Speed Gust Speed Precip Events Conditions
12:20 AM 71.6 °F 69.8 °F 94% 29.89 in 3.7 mi South 9.2 mph - N/A Rain , Thunderstorm Light Thunderstorms and Rain
12:50 AM 69.8 °F 68.0 °F 94% 29.89 in 3.7 mi South 13.8 mph - N/A Rain , Thunderstorm Thunderstorms and Rain
1:20 AM 69.8 °F 68.0 °F 94% 29.89 in 3.1 mi WSW 12.7 mph - N/A Rain , Thunderstorm Thunderstorms and Rain
1:50 AM 69.8 °F 68.0 °F 94% 29.89 in 4.3 mi East 6.9 mph - N/A Rain , Thunderstorm Light Thunderstorms and Rain
2:20 AM 69.8 °F 68.0 °F 94% 29.89 in 4.3 mi Calm Calm - N/A Rain Light Rain
3:00 AM 66 °F 66 °F 98% 29.91 in 4 mi Calm Calm - - Rain Light Rain
3:20 AM 66.2 °F 66.2 °F 100% 29.89 in 3.7 mi Calm Calm - N/A Rain Light Rain
3:50 AM 66.2 °F 66.2 °F 100% 29.89 in 4.3 mi Calm Calm - N/A Rain Light Rain
4:20 AM 66.2 °F 66.2 °F 100% 29.89 in 6.2 mi Calm Calm - N/A   Mostly Cloudy
5:50 AM 69.8 °F 68.0 °F 94% 29.86 in 6.2 mi South 8.1 mph - N/A   Mostly Cloudy
6:20 AM 69.8 °F 68.0 °F 94% 29.86 in 4.3 mi South 10.4 mph - N/A Rain Light Rain
6:50 AM 69.8 °F 68.0 °F 94% 29.86 in 6.2 mi South 16.1 mph - N/A Thunderstorm Thunderstorm
7:20 AM 69.8 °F 68.0 °F 94% 29.86 in 6.2 mi South 18.4 mph - N/A Thunderstorm Thunderstorm
7:50 AM 69.8 °F 68.0 °F 94% 29.86 in 6.2 mi South 11.5 mph - N/A   Mostly Cloudy
8:20 AM 69.8 °F 68.0 °F 94% 29.86 in 6.2 mi South 13.8 mph - N/A   Mostly Cloudy
8:50 AM 71.6 °F 68.0 °F 88% 29.86 in 6.2 mi South 12.7 mph - N/A   Mostly Cloudy
9:00 AM 71 °F 69 °F 89% 29.88 in 6 mi South 12.7 mph - -   Partly Cloudy
9:20 AM 71.6 °F 68.0 °F 88% 29.86 in 6.2 mi South 12.7 mph - N/A   Mostly Cloudy
9:50 AM 71.6 °F 68.0 °F 88% 29.86 in 6.2 mi South 12.7 mph - N/A   Mostly Cloudy
10:20 AM 71.6 °F 68.0 °F 88% 29.86 in 6.2 mi South 12.7 mph - N/A   Mostly Cloudy
10:50 AM 73.4 °F 68.0 °F 83% 29.86 in 6.2 mi SSW 13.8 mph - N/A   Mostly Cloudy
11:20 AM 73.4 °F 68.0 °F 83% 29.86 in 6.2 mi SSW 15.0 mph - N/A   Mostly Cloudy
11:50 AM 71.6 °F 69.8 °F 94% 29.89 in 5.0 mi SSW 8.1 mph - N/A Rain Light Rain
12:20 PM 71.6 °F 69.8 °F 94% 29.89 in 6.2 mi SSW 8.1 mph - N/A   Mostly Cloudy
12:50 PM 71.6 °F 69.8 °F 94% 29.89 in 6.2 mi South 15.0 mph - N/A   Mostly Cloudy
1:20 PM 71.6 °F 69.8 °F 94% 29.89 in 6.2 mi South 15.0 mph - N/A   Mostly Cloudy
1:50 PM 71.6 °F 69.8 °F 94% 29.89 in 6.2 mi South 15.0 mph - N/A   Mostly Cloudy
2:20 PM 71.6 °F 69.8 °F 94% 29.89 in 6.2 mi South 12.7 mph - N/A   Mostly Cloudy
2:50 PM 73.4 °F 69.8 °F 88% 29.86 in 6.2 mi South 12.7 mph - N/A   Mostly Cloudy
3:00 PM 73 °F 69 °F 84% 29.87 in 6 mi South 12.7 mph - -   Partly Cloudy
3:20 PM 73.4 °F 69.8 °F 88% 29.86 in 6.2 mi SSE 10.4 mph - N/A   Mostly Cloudy
3:50 PM 71.6 °F 69.8 °F 94% 29.86 in 0.9 mi SSE 13.8 mph - N/A Rain Heavy Rain
4:20 PM 71.6 °F 69.8 °F 94% 29.86 in 3.7 mi SSE 18.4 mph - N/A Rain Light Rain
4:50 PM 71.6 °F 68.0 °F 88% 29.86 in 5.0 mi SSE 17.3 mph - N/A Rain Light Rain
5:20 PM 71.6 °F 68.0 °F 88% 29.86 in 6.2 mi SSE 15.0 mph - N/A   Mostly Cloudy
5:50 PM 71.6 °F 68.0 °F 88% 29.83 in 6.2 mi SSE 13.8 mph - N/A   Mostly Cloudy
6:20 PM 71.6 °F 68.0 °F 88% 29.83 in 6.2 mi SSE 10.4 mph - N/A   Mostly Cloudy
6:50 PM 71.6 °F 68.0 °F 88% 29.83 in 6.2 mi SSE 10.4 mph - N/A   Scattered Clouds
7:20 PM 69.8 °F 68.0 °F 94% 29.83 in 6.2 mi SSE 10.4 mph - N/A   Mostly Cloudy
7:50 PM 71.6 °F 68.0 °F 88% 29.86 in 6.2 mi SSE 9.2 mph - N/A   Mostly Cloudy
8:20 PM 71.6 °F 68.0 °F 88% 29.86 in 6.2 mi SSE 9.2 mph - N/A   Mostly Cloudy
8:50 PM 71.6 °F 68.0 °F 88% 29.86 in 6.2 mi SSE 13.8 mph - N/A   Mostly Cloudy
9:00 PM 71 °F 67 °F 84% 29.88 in 6 mi SSE 13.8 mph - -   Partly Cloudy
9:20 PM 71.6 °F 68.0 °F 88% 29.86 in 6.2 mi SSE 13.8 mph - N/A   Mostly Cloudy
9:50 PM 71.6 °F 68.0 °F 88% 29.89 in 6.2 mi South 9.2 mph - N/A   Mostly Cloudy
10:20 PM 71.6 °F 68.0 °F 88% 29.89 in 6.2 mi South 9.2 mph - N/A   Mostly Cloudy
10:50 PM 71.6 °F 68.0 °F 88% 29.89 in 6.2 mi SSW 8.1 mph - N/A   Mostly Cloudy
11:20 PM 71.6 °F 68.0 °F 88% 29.89 in 6.2 mi South 15.0 mph - N/A   Mostly Cloudy
11:50 PM 69.8 °F 66.2 °F 88% 29.89 in 6.2 mi SSE 15.0 mph - N/A   Mostly Cloudy